Location: Lac Lasalle
(46.0398°N, 74.1576°W)
Time: 02:08:32
(UTC-04:00)

ISS - Pass Details

Date: 30 March 2019
Orbit: 408 x 410 km, 51.6° (Epoch: 21 April)

Event Time Altitude Azimuth Distance (km) Brightness Sun altitude
Rises 20:26:02 0° 286° (WNW) 2,337 2.3 -11.6°
Reaches altitude 10° 20:28:18 10° 298° (WNW) 1,475 0.5 -12.0°
Maximum altitude 20:31:15 29° 2° (N) 778 -2.2 -12.5°
Enters shadow 20:33:44 13° 60° (ENE) 1,308 -1.6 -12.9°
